Year,Month,Day,Hour,Minute,Value (Times are PST for temperature in C)
2012,09,17,00,00,12.90
2012,09,17,00,01,12.90
2012,09,17,00,02,12.80
2012,09,17,00,03,12.80
2012,09,17,00,04,12.80
2012,09,17,00,05,12.80
2012,09,17,00,06,12.80
2012,09,17,00,07,12.80
2012,09,17,00,08,12.80
2012,09,17,00,09,12.80
2012,09,17,00,10,12.80
2012,09,17,00,11,12.80
2012,09,17,00,12,12.80
2012,09,17,00,13,12.80
2012,09,17,00,14,12.80
2012,09,17,00,15,12.80
2012,09,17,00,16,12.80
2012,09,17,00,17,12.80
2012,09,17,00,18,12.80
2012,09,17,00,19,12.80
2012,09,17,00,20,12.80
2012,09,17,00,21,12.80
2012,09,17,00,22,12.80
2012,09,17,00,23,12.80
2012,09,17,00,24,12.80
2012,09,17,00,25,12.80
2012,09,17,00,26,12.70
2012,09,17,00,27,12.70
2012,09,17,00,28,12.70
2012,09,17,00,29,12.70
2012,09,17,00,30,12.70
2012,09,17,00,31,12.70
2012,09,17,00,32,12.60
2012,09,17,00,33,12.60
2012,09,17,00,34,12.60
2012,09,17,00,35,12.60
2012,09,17,00,36,12.60
2012,09,17,00,37,12.60
2012,09,17,00,38,12.50
2012,09,17,00,39,12.50
2012,09,17,00,40,12.50
2012,09,17,00,41,12.50
2012,09,17,00,42,12.40
2012,09,17,00,43,12.40
2012,09,17,00,44,12.40
2012,09,17,00,45,12.40
2012,09,17,00,46,12.40
2012,09,17,00,47,12.30
2012,09,17,00,48,12.30
2012,09,17,00,49,12.30
2012,09,17,00,50,12.30
2012,09,17,00,51,12.30
2012,09,17,00,52,12.30
2012,09,17,00,53,12.30
2012,09,17,00,54,12.20
2012,09,17,00,55,12.20
2012,09,17,00,56,12.10
2012,09,17,00,57,12.10
2012,09,17,00,58,12.10
2012,09,17,00,59,12.00
2012,09,17,01,00,12.00
2012,09,17,01,01,11.90
2012,09,17,01,02,11.90
2012,09,17,01,03,11.90
2012,09,17,01,04,11.90
2012,09,17,01,05,11.90
2012,09,17,01,06,11.90
2012,09,17,01,07,11.80
2012,09,17,01,08,11.80
2012,09,17,01,09,11.80
2012,09,17,01,10,11.80
2012,09,17,01,11,11.80
2012,09,17,01,12,11.80
2012,09,17,01,13,11.80
2012,09,17,01,14,11.70
2012,09,17,01,15,11.70
2012,09,17,01,16,11.70
2012,09,17,01,17,11.70
2012,09,17,01,18,11.70
2012,09,17,01,19,11.70
2012,09,17,01,20,11.70
2012,09,17,01,21,11.80
2012,09,17,01,22,11.80
2012,09,17,01,23,11.80
2012,09,17,01,24,11.80
2012,09,17,01,25,11.80
2012,09,17,01,26,11.80
2012,09,17,01,27,11.80
2012,09,17,01,28,11.80
2012,09,17,01,29,11.80
2012,09,17,01,30,11.80
2012,09,17,01,31,11.80
2012,09,17,01,32,11.80
2012,09,17,01,33,11.80
2012,09,17,01,34,11.80
2012,09,17,01,35,11.80
2012,09,17,01,36,11.80
2012,09,17,01,37,11.80
2012,09,17,01,38,11.80
2012,09,17,01,39,11.80
2012,09,17,01,40,11.80
2012,09,17,01,41,11.80
2012,09,17,01,42,11.80
2012,09,17,01,43,11.80
2012,09,17,01,44,11.70
2012,09,17,01,45,11.70
2012,09,17,01,46,11.60
2012,09,17,01,47,11.60
2012,09,17,01,48,11.50
2012,09,17,01,49,11.50
2012,09,17,01,50,11.50
2012,09,17,01,51,11.40
2012,09,17,01,52,11.40
2012,09,17,01,53,11.40
2012,09,17,01,54,11.40
2012,09,17,01,55,11.40
2012,09,17,01,56,11.40
2012,09,17,01,57,11.40
2012,09,17,01,58,11.50
2012,09,17,01,59,11.50
2012,09,17,02,00,11.50
2012,09,17,02,01,11.50
2012,09,17,02,02,11.60
2012,09,17,02,03,11.60
2012,09,17,02,04,11.60
2012,09,17,02,05,11.60
2012,09,17,02,06,11.60
2012,09,17,02,07,11.60
2012,09,17,02,08,11.50
2012,09,17,02,09,11.50
2012,09,17,02,10,11.50
2012,09,17,02,11,11.50
2012,09,17,02,12,11.50
2012,09,17,02,13,11.40
2012,09,17,02,14,11.40
2012,09,17,02,15,11.40
2012,09,17,02,16,11.40
2012,09,17,02,17,11.40
2012,09,17,02,18,11.40
2012,09,17,02,19,11.40
2012,09,17,02,20,11.40
2012,09,17,02,21,11.40
2012,09,17,02,22,11.40
2012,09,17,02,23,11.40
2012,09,17,02,24,11.30
2012,09,17,02,25,11.30
2012,09,17,02,26,11.30
2012,09,17,02,27,11.30
2012,09,17,02,28,11.30
2012,09,17,02,29,11.30
2012,09,17,02,30,11.30
2012,09,17,02,31,11.30
2012,09,17,02,32,11.30
2012,09,17,02,33,11.40
2012,09,17,02,34,11.40
2012,09,17,02,35,11.40
2012,09,17,02,36,11.40
2012,09,17,02,37,11.40
2012,09,17,02,38,11.40
2012,09,17,02,39,11.40
2012,09,17,02,40,11.40
2012,09,17,02,41,11.40
2012,09,17,02,42,11.40
2012,09,17,02,43,11.40
2012,09,17,02,44,11.40
2012,09,17,02,45,11.40
2012,09,17,02,46,11.40
2012,09,17,02,47,11.40
2012,09,17,02,48,11.40
2012,09,17,02,49,11.40
2012,09,17,02,50,11.50
2012,09,17,02,51,11.50
2012,09,17,02,52,11.50
2012,09,17,02,53,11.50
2012,09,17,02,54,11.60
2012,09,17,02,55,11.60
2012,09,17,02,56,11.70
2012,09,17,02,57,11.80
2012,09,17,02,58,11.90
2012,09,17,02,59,12.00
2012,09,17,03,00,12.10
2012,09,17,03,01,12.20
2012,09,17,03,02,12.30
2012,09,17,03,03,12.30
2012,09,17,03,04,12.30
2012,09,17,03,05,12.40
2012,09,17,03,06,12.40
2012,09,17,03,07,12.40
2012,09,17,03,08,12.40
2012,09,17,03,09,12.30
2012,09,17,03,10,12.20
2012,09,17,03,11,12.20
2012,09,17,03,12,12.10
2012,09,17,03,13,12.10
2012,09,17,03,14,12.00
2012,09,17,03,15,12.00
2012,09,17,03,16,11.90
2012,09,17,03,17,11.90
2012,09,17,03,18,11.80
2012,09,17,03,19,11.80
2012,09,17,03,20,11.80
2012,09,17,03,21,11.80
2012,09,17,03,22,11.70
2012,09,17,03,23,11.70
2012,09,17,03,24,11.60
2012,09,17,03,25,11.50
2012,09,17,03,26,11.50
2012,09,17,03,27,11.30
2012,09,17,03,28,11.30
2012,09,17,03,29,11.20
2012,09,17,03,30,11.20
2012,09,17,03,31,11.20
2012,09,17,03,32,11.20
2012,09,17,03,33,11.20
2012,09,17,03,34,11.20
2012,09,17,03,35,11.20
2012,09,17,03,36,11.20
2012,09,17,03,37,11.20
2012,09,17,03,38,11.20
2012,09,17,03,39,11.10
2012,09,17,03,40,11.10
2012,09,17,03,41,11.10
2012,09,17,03,42,11.10
2012,09,17,03,43,11.10
2012,09,17,03,44,11.10
2012,09,17,03,45,11.10
2012,09,17,03,46,11.10
2012,09,17,03,47,11.20
2012,09,17,03,48,11.20
2012,09,17,03,49,11.20
2012,09,17,03,50,11.20
2012,09,17,03,51,11.20
2012,09,17,03,52,11.20
2012,09,17,03,53,11.20
2012,09,17,03,54,11.20
2012,09,17,03,55,11.20
2012,09,17,03,56,11.20
2012,09,17,03,57,11.20
2012,09,17,03,58,11.20
2012,09,17,03,59,11.20
2012,09,17,04,00,11.20
2012,09,17,04,01,11.20
2012,09,17,04,02,11.20
2012,09,17,04,03,11.20
2012,09,17,04,04,11.20
2012,09,17,04,05,11.20
2012,09,17,04,06,11.20
2012,09,17,04,07,11.20
2012,09,17,04,08,11.20
2012,09,17,04,09,11.20
2012,09,17,04,10,11.10
2012,09,17,04,11,11.10
2012,09,17,04,12,11.10
2012,09,17,04,13,11.00
2012,09,17,04,14,11.00
2012,09,17,04,15,11.00
2012,09,17,04,16,11.00
2012,09,17,04,17,10.90
2012,09,17,04,18,10.90
2012,09,17,04,19,10.90
2012,09,17,04,20,10.90
2012,09,17,04,21,10.90
2012,09,17,04,22,10.80
2012,09,17,04,23,10.80
2012,09,17,04,24,10.80
2012,09,17,04,25,10.80
2012,09,17,04,26,10.80
2012,09,17,04,27,10.80
2012,09,17,04,28,10.80
2012,09,17,04,29,10.80
2012,09,17,04,30,10.80
2012,09,17,04,31,10.80
2012,09,17,04,32,10.80
2012,09,17,04,33,10.80
2012,09,17,04,34,10.80
2012,09,17,04,35,10.90
2012,09,17,04,36,10.90
2012,09,17,04,37,10.90
2012,09,17,04,38,10.90
2012,09,17,04,39,11.00
2012,09,17,04,40,11.00
2012,09,17,04,41,11.00
2012,09,17,04,42,11.10
2012,09,17,04,43,11.20
2012,09,17,04,44,11.20
2012,09,17,04,45,11.30
2012,09,17,04,46,11.40
2012,09,17,04,47,11.50
2012,09,17,04,48,11.50
2012,09,17,04,49,11.60
2012,09,17,04,50,11.60
2012,09,17,04,51,11.60
2012,09,17,04,52,11.70
2012,09,17,04,53,11.70
2012,09,17,04,54,11.70
2012,09,17,04,55,11.70
2012,09,17,04,56,11.70
2012,09,17,04,57,11.70
2012,09,17,04,58,11.70
2012,09,17,04,59,11.60
2012,09,17,05,00,11.60
2012,09,17,05,01,11.50
2012,09,17,05,02,11.40
2012,09,17,05,03,11.40
2012,09,17,05,04,11.30
2012,09,17,05,05,11.20
2012,09,17,05,06,11.10
2012,09,17,05,07,11.00
2012,09,17,05,08,11.00
2012,09,17,05,09,10.90
2012,09,17,05,10,10.80
2012,09,17,05,11,10.80
2012,09,17,05,12,10.70
2012,09,17,05,13,10.70
2012,09,17,05,14,10.70
2012,09,17,05,15,10.70
2012,09,17,05,16,10.70
2012,09,17,05,17,10.70
2012,09,17,05,18,10.70
2012,09,17,05,19,10.70
2012,09,17,05,20,10.80
2012,09,17,05,21,10.80
2012,09,17,05,22,10.80
2012,09,17,05,23,10.80
2012,09,17,05,24,10.80
2012,09,17,05,25,10.80
2012,09,17,05,26,10.80
2012,09,17,05,27,10.80
2012,09,17,05,28,10.80
2012,09,17,05,29,10.80
2012,09,17,05,30,10.80
2012,09,17,05,31,10.80
2012,09,17,05,32,10.80
2012,09,17,05,33,10.70
2012,09,17,05,34,10.70
2012,09,17,05,35,10.70
2012,09,17,05,36,10.70
2012,09,17,05,37,10.60
2012,09,17,05,38,10.60
2012,09,17,05,39,10.60
2012,09,17,05,40,10.60
2012,09,17,05,41,10.60
2012,09,17,05,42,10.60
2012,09,17,05,43,10.60
2012,09,17,05,44,10.60
2012,09,17,05,45,10.60
2012,09,17,05,46,10.60
2012,09,17,05,47,10.50
2012,09,17,05,48,10.50
2012,09,17,05,49,10.60
2012,09,17,05,50,10.60
2012,09,17,05,51,10.60
2012,09,17,05,52,10.60
2012,09,17,05,53,10.60
2012,09,17,05,54,10.60
2012,09,17,05,55,10.60
2012,09,17,05,56,10.60
2012,09,17,05,57,10.60
2012,09,17,05,58,10.60
2012,09,17,05,59,10.60
2012,09,17,06,00,10.60
2012,09,17,06,01,10.50
2012,09,17,06,02,10.50
2012,09,17,06,03,10.50
2012,09,17,06,04,10.50
2012,09,17,06,05,10.50
2012,09,17,06,06,10.50
2012,09,17,06,07,10.50
2012,09,17,06,08,10.50
2012,09,17,06,09,10.50
2012,09,17,06,10,10.60
2012,09,17,06,11,10.60
2012,09,17,06,12,10.60
2012,09,17,06,13,10.60
2012,09,17,06,14,10.60
2012,09,17,06,15,10.60
2012,09,17,06,16,10.50
2012,09,17,06,17,10.50
2012,09,17,06,18,10.40
2012,09,17,06,19,10.40
2012,09,17,06,20,10.40
2012,09,17,06,21,10.40
2012,09,17,06,22,10.40
2012,09,17,06,23,10.40
2012,09,17,06,24,10.40
2012,09,17,06,25,10.40
2012,09,17,06,26,10.40
2012,09,17,06,27,10.40
2012,09,17,06,28,10.40
2012,09,17,06,29,10.30
2012,09,17,06,30,10.30
2012,09,17,06,31,10.30
2012,09,17,06,32,10.30
2012,09,17,06,33,10.30
2012,09,17,06,34,10.30
2012,09,17,06,35,10.40
2012,09,17,06,36,10.40
2012,09,17,06,37,10.40
2012,09,17,06,38,10.40
2012,09,17,06,39,10.40
2012,09,17,06,40,10.40
2012,09,17,06,41,10.40
2012,09,17,06,42,10.40
2012,09,17,06,43,10.40
2012,09,17,06,44,10.40
2012,09,17,06,45,10.40
2012,09,17,06,46,10.30
2012,09,17,06,47,10.30
2012,09,17,06,48,10.20
2012,09,17,06,49,10.20
2012,09,17,06,50,10.20
2012,09,17,06,51,10.10
2012,09,17,06,52,10.10
2012,09,17,06,53,10.10
2012,09,17,06,54,10.00
2012,09,17,06,55,10.00
2012,09,17,06,56,9.90
2012,09,17,06,57,9.90
2012,09,17,06,58,9.90
2012,09,17,06,59,9.90
2012,09,17,07,00,9.90
2012,09,17,07,01,9.90
2012,09,17,07,02,10.00
2012,09,17,07,03,10.00
2012,09,17,07,04,10.00
2012,09,17,07,05,10.00
2012,09,17,07,06,10.00
2012,09,17,07,07,10.00
2012,09,17,07,08,10.00
2012,09,17,07,09,10.00
2012,09,17,07,10,10.00
2012,09,17,07,11,10.00
2012,09,17,07,12,10.00
2012,09,17,07,13,10.10
2012,09,17,07,14,10.10
2012,09,17,07,15,10.20
2012,09,17,07,16,10.20
2012,09,17,07,17,10.20
2012,09,17,07,18,10.20
2012,09,17,07,19,10.20
2012,09,17,07,20,10.20
2012,09,17,07,21,10.20
2012,09,17,07,22,10.20
2012,09,17,07,23,10.20
2012,09,17,07,24,10.20
2012,09,17,07,25,10.20
2012,09,17,07,26,10.20
2012,09,17,07,27,10.20
2012,09,17,07,28,10.20
2012,09,17,07,29,10.20
2012,09,17,07,30,10.20
2012,09,17,07,31,10.20
2012,09,17,07,32,10.20
2012,09,17,07,33,10.20
2012,09,17,07,34,10.20
2012,09,17,07,35,10.20
2012,09,17,07,36,10.10
2012,09,17,07,37,10.10
2012,09,17,07,38,10.10
2012,09,17,07,39,10.10
2012,09,17,07,40,10.00
2012,09,17,07,41,10.00
2012,09,17,07,42,9.90
2012,09,17,07,43,9.90
2012,09,17,07,44,9.90
2012,09,17,07,45,9.90
2012,09,17,07,46,9.90
2012,09,17,07,47,9.90
2012,09,17,07,48,9.90
2012,09,17,07,49,9.90
2012,09,17,07,50,9.90
2012,09,17,07,51,10.00
2012,09,17,07,52,10.00
2012,09,17,07,53,10.10
2012,09,17,07,54,10.20
2012,09,17,07,55,10.20
2012,09,17,07,56,10.30
2012,09,17,07,57,10.40
2012,09,17,07,58,10.60
2012,09,17,07,59,10.80
2012,09,17,08,00,10.90
2012,09,17,08,01,11.10
2012,09,17,08,02,11.20
2012,09,17,08,03,11.40
2012,09,17,08,04,11.60
2012,09,17,08,05,11.80
2012,09,17,08,06,11.90
2012,09,17,08,07,12.00
2012,09,17,08,08,12.20
2012,09,17,08,09,12.30
2012,09,17,08,10,12.40
2012,09,17,08,11,12.60
2012,09,17,08,12,12.80
2012,09,17,08,13,13.00
2012,09,17,08,14,13.20
2012,09,17,08,15,13.30
2012,09,17,08,16,13.50
2012,09,17,08,17,13.70
2012,09,17,08,18,13.80
2012,09,17,08,19,14.00
2012,09,17,08,20,14.20
2012,09,17,08,21,14.30
2012,09,17,08,22,14.50
2012,09,17,08,23,14.70
2012,09,17,08,24,14.80
2012,09,17,08,25,15.00
2012,09,17,08,26,15.10
2012,09,17,08,27,15.30
2012,09,17,08,28,15.40
2012,09,17,08,29,15.50
2012,09,17,08,30,15.60
2012,09,17,08,31,15.70
2012,09,17,08,32,15.80
2012,09,17,08,33,15.90
2012,09,17,08,34,16.00
2012,09,17,08,35,16.10
2012,09,17,08,36,16.20
2012,09,17,08,37,16.30
2012,09,17,08,38,16.40
2012,09,17,08,39,16.50
2012,09,17,08,40,16.60
2012,09,17,08,41,16.70
2012,09,17,08,42,16.80
2012,09,17,08,43,16.80
2012,09,17,08,44,16.90
2012,09,17,08,45,16.90
2012,09,17,08,46,16.90
2012,09,17,08,47,17.00
2012,09,17,08,48,17.00
2012,09,17,08,49,17.00
2012,09,17,08,50,17.00
2012,09,17,08,51,17.10
2012,09,17,08,52,17.10
2012,09,17,08,53,17.10
2012,09,17,08,54,17.10
2012,09,17,08,55,17.10
2012,09,17,08,56,17.10
2012,09,17,08,57,17.20
2012,09,17,08,58,17.20
2012,09,17,08,59,17.20
2012,09,17,09,00,17.30
2012,09,17,09,01,17.30
2012,09,17,09,02,17.30
2012,09,17,09,03,17.30
2012,09,17,09,04,17.40
2012,09,17,09,05,17.40
2012,09,17,09,06,17.40
2012,09,17,09,07,17.50
2012,09,17,09,08,17.50
2012,09,17,09,09,17.50
2012,09,17,09,10,17.50
2012,09,17,09,11,17.50
2012,09,17,09,12,17.50
2012,09,17,09,13,17.60
2012,09,17,09,14,17.60
2012,09,17,09,15,17.60
2012,09,17,09,16,17.60
2012,09,17,09,17,17.60
2012,09,17,09,18,17.60
2012,09,17,09,19,17.60
2012,09,17,09,20,17.70
2012,09,17,09,21,17.70
2012,09,17,09,22,17.70
2012,09,17,09,23,17.70
2012,09,17,09,24,17.80
2012,09,17,09,25,17.80
2012,09,17,09,26,17.80
2012,09,17,09,27,17.90
2012,09,17,09,28,17.90
2012,09,17,09,29,17.90
2012,09,17,09,30,18.00
2012,09,17,09,31,18.00
2012,09,17,09,32,18.10
2012,09,17,09,33,18.10
2012,09,17,09,34,18.20
2012,09,17,09,35,18.20
2012,09,17,09,36,18.20
2012,09,17,09,37,18.20
2012,09,17,09,38,18.30
2012,09,17,09,39,18.30
2012,09,17,09,40,18.30
2012,09,17,09,41,18.30
2012,09,17,09,42,18.30
2012,09,17,09,43,18.30
2012,09,17,09,44,18.30
2012,09,17,09,45,18.40
2012,09,17,09,46,18.40
2012,09,17,09,47,18.40
2012,09,17,09,48,18.50
2012,09,17,09,49,18.50
2012,09,17,09,50,18.60
2012,09,17,09,51,18.60
2012,09,17,09,52,18.70
2012,09,17,09,53,18.70
2012,09,17,09,54,18.70
2012,09,17,09,55,18.80
2012,09,17,09,56,18.80
2012,09,17,09,57,18.80
2012,09,17,09,58,18.80
2012,09,17,09,59,18.80
2012,09,17,10,00,18.80
2012,09,17,10,01,18.80
2012,09,17,10,02,18.80
2012,09,17,10,03,18.80
2012,09,17,10,04,18.80
2012,09,17,10,05,18.80
2012,09,17,10,06,18.80
2012,09,17,10,07,18.80
2012,09,17,10,08,18.80
2012,09,17,10,09,18.80
2012,09,17,10,10,18.80
2012,09,17,10,11,18.80
2012,09,17,10,12,18.70
2012,09,17,10,13,18.70
2012,09,17,10,14,18.70
2012,09,17,10,15,18.70
2012,09,17,10,16,18.70
2012,09,17,10,17,18.80
2012,09,17,10,18,18.80
2012,09,17,10,19,18.80
2012,09,17,10,20,18.80
2012,09,17,10,21,18.80
2012,09,17,10,22,18.80
2012,09,17,10,23,18.80
2012,09,17,10,24,18.80
2012,09,17,10,25,18.90
2012,09,17,10,26,18.90
2012,09,17,10,27,19.00
2012,09,17,10,28,19.00
2012,09,17,10,29,19.10
2012,09,17,10,30,19.10
2012,09,17,10,31,19.20
2012,09,17,10,32,19.30
2012,09,17,10,33,19.30
2012,09,17,10,34,19.40
2012,09,17,10,35,19.50
2012,09,17,10,36,19.50
2012,09,17,10,37,19.60
2012,09,17,10,38,19.60
2012,09,17,10,39,19.70
2012,09,17,10,40,19.70
2012,09,17,10,41,19.70
2012,09,17,10,42,19.70
2012,09,17,10,43,19.80
2012,09,17,10,44,19.80
2012,09,17,10,45,19.80
2012,09,17,10,46,19.80
2012,09,17,10,47,19.80
2012,09,17,10,48,19.80
2012,09,17,10,49,19.80
2012,09,17,10,50,19.90
2012,09,17,10,51,19.90
2012,09,17,10,52,19.90
2012,09,17,10,53,19.90
2012,09,17,10,54,19.90
2012,09,17,10,55,19.80
2012,09,17,10,56,19.80
2012,09,17,10,57,19.80
2012,09,17,10,58,19.80
2012,09,17,10,59,19.70
2012,09,17,11,00,19.70
2012,09,17,11,01,19.70
2012,09,17,11,02,19.80
2012,09,17,11,03,19.80
2012,09,17,11,04,19.80
2012,09,17,11,05,19.90
2012,09,17,11,06,19.90
2012,09,17,11,07,19.90
2012,09,17,11,08,19.90
2012,09,17,11,09,19.90
2012,09,17,11,10,19.90
2012,09,17,11,11,19.90
2012,09,17,11,12,19.90
2012,09,17,11,13,19.90
2012,09,17,11,14,19.90
2012,09,17,11,15,19.90
2012,09,17,11,16,19.90
2012,09,17,11,17,19.90
2012,09,17,11,18,19.90
2012,09,17,11,19,19.90
2012,09,17,11,20,19.90
2012,09,17,11,21,19.90
2012,09,17,11,22,19.90
2012,09,17,11,23,19.90
2012,09,17,11,24,20.00
2012,09,17,11,25,20.00
2012,09,17,11,26,20.00
2012,09,17,11,27,20.10
2012,09,17,11,28,20.10
2012,09,17,11,29,20.10
2012,09,17,11,30,20.20
2012,09,17,11,31,20.20
2012,09,17,11,32,20.30
2012,09,17,11,33,20.30
2012,09,17,11,34,20.40
2012,09,17,11,35,20.50
2012,09,17,11,36,20.50
2012,09,17,11,37,20.60
2012,09,17,11,38,20.70
2012,09,17,11,39,20.70
2012,09,17,11,40,20.80
2012,09,17,11,41,20.80
2012,09,17,11,42,20.80
2012,09,17,11,43,20.80
2012,09,17,11,44,20.90
2012,09,17,11,45,20.90
2012,09,17,11,46,20.90
2012,09,17,11,47,20.90
2012,09,17,11,48,20.90
2012,09,17,11,49,20.90
2012,09,17,11,50,20.90
2012,09,17,11,51,20.90
2012,09,17,11,52,20.90
2012,09,17,11,53,21.00
2012,09,17,11,54,21.00
2012,09,17,11,55,21.00
2012,09,17,11,56,21.00
2012,09,17,11,57,21.00
2012,09,17,11,58,21.00
2012,09,17,11,59,21.10
2012,09,17,12,00,21.10
2012,09,17,12,01,21.10
2012,09,17,12,02,21.10
2012,09,17,12,03,21.10
2012,09,17,12,04,21.10
2012,09,17,12,05,21.10
2012,09,17,12,06,21.10
2012,09,17,12,07,21.10
2012,09,17,12,08,21.10
2012,09,17,12,09,21.10
2012,09,17,12,10,21.10
2012,09,17,12,11,21.10
2012,09,17,12,12,21.10
2012,09,17,12,13,21.20
2012,09,17,12,14,21.20
2012,09,17,12,15,21.30
2012,09,17,12,16,21.40
2012,09,17,12,17,21.50
2012,09,17,12,18,21.50
2012,09,17,12,19,21.60
2012,09,17,12,20,21.60
2012,09,17,12,21,21.60
2012,09,17,12,22,21.60
2012,09,17,12,23,21.60
2012,09,17,12,24,21.50
2012,09,17,12,25,21.50
2012,09,17,12,26,21.60
2012,09,17,12,27,21.60
2012,09,17,12,28,21.60
2012,09,17,12,29,21.60
2012,09,17,12,30,21.60
2012,09,17,12,31,21.60
2012,09,17,12,32,21.60
2012,09,17,12,33,21.60
2012,09,17,12,34,21.60
2012,09,17,12,35,21.50
2012,09,17,12,36,21.50
2012,09,17,12,37,21.50
2012,09,17,12,38,21.50
2012,09,17,12,39,21.50
2012,09,17,12,40,21.50
2012,09,17,12,41,21.40
2012,09,17,12,42,21.40
2012,09,17,12,43,21.40
2012,09,17,12,44,21.50
2012,09,17,12,45,21.50
2012,09,17,12,46,21.60
2012,09,17,12,47,21.60
2012,09,17,12,48,21.60
2012,09,17,12,49,21.70
2012,09,17,12,50,21.70
2012,09,17,12,51,21.80
2012,09,17,12,52,21.80
2012,09,17,12,53,21.90
2012,09,17,12,54,21.90
2012,09,17,12,55,21.90
2012,09,17,12,56,21.90
2012,09,17,12,57,21.90
2012,09,17,12,58,21.90
2012,09,17,12,59,22.00
2012,09,17,13,00,22.00
2012,09,17,13,01,22.00
2012,09,17,13,02,22.00
2012,09,17,13,03,22.00
2012,09,17,13,04,22.00
2012,09,17,13,05,22.00
2012,09,17,13,06,22.00
2012,09,17,13,07,22.10
2012,09,17,13,08,22.10
2012,09,17,13,09,22.10
2012,09,17,13,10,22.10
2012,09,17,13,11,22.10
2012,09,17,13,12,22.10
2012,09,17,13,13,22.10
2012,09,17,13,14,22.20
2012,09,17,13,15,22.20
2012,09,17,13,16,22.30
2012,09,17,13,17,22.30
2012,09,17,13,18,22.30
2012,09,17,13,19,22.40
2012,09,17,13,20,22.50
2012,09,17,13,21,22.60
2012,09,17,13,22,22.60
2012,09,17,13,23,22.70
2012,09,17,13,24,22.70
2012,09,17,13,25,22.70
2012,09,17,13,26,22.70
2012,09,17,13,27,22.70
2012,09,17,13,28,22.70
2012,09,17,13,29,22.70
2012,09,17,13,30,22.60
2012,09,17,13,31,22.50
2012,09,17,13,32,22.40
2012,09,17,13,33,22.30
2012,09,17,13,34,22.30
2012,09,17,13,35,22.20
2012,09,17,13,36,22.20
2012,09,17,13,37,22.20
2012,09,17,13,38,22.20
2012,09,17,13,39,22.20
2012,09,17,13,40,22.30
2012,09,17,13,41,22.30
2012,09,17,13,42,22.30
2012,09,17,13,43,22.30
2012,09,17,13,44,22.40
2012,09,17,13,45,22.40
2012,09,17,13,46,22.50
2012,09,17,13,47,22.60
2012,09,17,13,48,22.60
2012,09,17,13,49,22.70
2012,09,17,13,50,22.70
2012,09,17,13,51,22.60
2012,09,17,13,52,22.60
2012,09,17,13,53,22.50
2012,09,17,13,54,22.40
2012,09,17,13,55,22.40
2012,09,17,13,56,22.40
2012,09,17,13,57,22.40
2012,09,17,13,58,22.40
2012,09,17,13,59,22.30
2012,09,17,14,00,22.30
2012,09,17,14,01,22.40
2012,09,17,14,02,22.40
2012,09,17,14,03,22.40
2012,09,17,14,04,22.40
2012,09,17,14,05,22.40
2012,09,17,14,06,22.40
2012,09,17,14,07,22.30
2012,09,17,14,08,22.30
2012,09,17,14,09,22.30
2012,09,17,14,10,22.30
2012,09,17,14,11,22.30
2012,09,17,14,12,22.40
2012,09,17,14,13,22.50
2012,09,17,14,14,22.60
2012,09,17,14,15,22.60
2012,09,17,14,16,22.70
2012,09,17,14,17,22.80
2012,09,17,14,18,22.80
2012,09,17,14,19,22.80
2012,09,17,14,20,22.80
2012,09,17,14,21,22.80
2012,09,17,14,22,22.80
2012,09,17,14,23,22.80
2012,09,17,14,24,22.80
2012,09,17,14,25,22.80
2012,09,17,14,26,22.80
2012,09,17,14,27,22.80
2012,09,17,14,28,22.80
2012,09,17,14,29,22.80
2012,09,17,14,30,22.80
2012,09,17,14,31,22.80
2012,09,17,14,32,22.80
2012,09,17,14,33,22.90
2012,09,17,14,34,22.90
2012,09,17,14,35,23.00
2012,09,17,14,36,23.10
2012,09,17,14,37,23.10
2012,09,17,14,38,23.20
2012,09,17,14,39,23.30
2012,09,17,14,40,23.30
2012,09,17,14,41,23.30
2012,09,17,14,42,23.30
2012,09,17,14,43,23.30
2012,09,17,14,44,23.40
2012,09,17,14,45,23.40
2012,09,17,14,46,23.40
2012,09,17,14,47,23.50
2012,09,17,14,48,23.50
2012,09,17,14,49,23.50
2012,09,17,14,50,23.50
2012,09,17,14,51,23.60
2012,09,17,14,52,23.70
2012,09,17,14,53,23.70
2012,09,17,14,54,23.70
2012,09,17,14,55,23.70
2012,09,17,14,56,23.70
2012,09,17,14,57,23.80
2012,09,17,14,58,23.80
2012,09,17,14,59,23.80
2012,09,17,15,00,23.80
2012,09,17,15,01,23.80
2012,09,17,15,02,23.70
2012,09,17,15,03,23.70
2012,09,17,15,04,23.60
2012,09,17,15,05,23.60
2012,09,17,15,06,23.60
2012,09,17,15,07,23.60
2012,09,17,15,08,23.50
2012,09,17,15,09,23.50
2012,09,17,15,10,23.50
2012,09,17,15,11,23.60
2012,09,17,15,12,23.60
2012,09,17,15,13,23.60
2012,09,17,15,14,23.60
2012,09,17,15,15,23.70
2012,09,17,15,16,23.70
2012,09,17,15,17,23.80
2012,09,17,15,18,23.80
2012,09,17,15,19,23.90
2012,09,17,15,20,24.00
2012,09,17,15,21,24.10
2012,09,17,15,22,24.10
2012,09,17,15,23,24.10
2012,09,17,15,24,24.20
2012,09,17,15,25,24.10
2012,09,17,15,26,24.10
2012,09,17,15,27,24.00
2012,09,17,15,28,24.00
2012,09,17,15,29,24.10
2012,09,17,15,30,24.10
2012,09,17,15,31,24.00
2012,09,17,15,32,24.10
2012,09,17,15,33,24.10
2012,09,17,15,34,24.10
2012,09,17,15,35,24.10
2012,09,17,15,36,24.00
2012,09,17,15,37,24.00
2012,09,17,15,38,24.00
2012,09,17,15,39,24.00
2012,09,17,15,40,24.00
2012,09,17,15,41,24.00
2012,09,17,15,42,24.00
2012,09,17,15,43,23.90
2012,09,17,15,44,23.90
2012,09,17,15,45,24.00
2012,09,17,15,46,24.00
2012,09,17,15,47,24.00
2012,09,17,15,48,24.10
2012,09,17,15,49,24.10
2012,09,17,15,50,24.10
2012,09,17,15,51,24.10
2012,09,17,15,52,24.20
2012,09,17,15,53,24.20
2012,09,17,15,54,24.20
2012,09,17,15,55,24.20
2012,09,17,15,56,24.20
2012,09,17,15,57,24.30
2012,09,17,15,58,24.40
2012,09,17,15,59,24.40
2012,09,17,16,00,24.40
2012,09,17,16,01,24.50
2012,09,17,16,02,24.50
2012,09,17,16,03,24.60
2012,09,17,16,04,24.70
2012,09,17,16,05,24.80
2012,09,17,16,06,24.80
2012,09,17,16,07,24.90
2012,09,17,16,08,24.90
2012,09,17,16,09,24.90
2012,09,17,16,10,24.90
2012,09,17,16,11,24.90
2012,09,17,16,12,24.90
2012,09,17,16,13,24.80
2012,09,17,16,14,24.80
2012,09,17,16,15,24.70
2012,09,17,16,16,24.70
2012,09,17,16,17,24.70
2012,09,17,16,18,24.60
2012,09,17,16,19,24.60
2012,09,17,16,20,24.60
2012,09,17,16,21,24.50
2012,09,17,16,22,24.50
2012,09,17,16,23,24.40
2012,09,17,16,24,24.40
2012,09,17,16,25,24.40
2012,09,17,16,26,24.50
2012,09,17,16,27,24.50
2012,09,17,16,28,24.50
2012,09,17,16,29,24.50
2012,09,17,16,30,24.50
2012,09,17,16,31,24.50
2012,09,17,16,32,24.50
2012,09,17,16,33,24.50
2012,09,17,16,34,24.50
2012,09,17,16,35,24.50
2012,09,17,16,36,24.50
2012,09,17,16,37,24.60
2012,09,17,16,38,24.60
2012,09,17,16,39,24.70
2012,09,17,16,40,24.70
2012,09,17,16,41,24.70
2012,09,17,16,42,24.80
2012,09,17,16,43,24.80
2012,09,17,16,44,24.80
2012,09,17,16,45,24.90
2012,09,17,16,46,24.90
2012,09,17,16,47,25.00
2012,09,17,16,48,25.10
2012,09,17,16,49,25.20
2012,09,17,16,50,25.20
2012,09,17,16,51,25.20
2012,09,17,16,52,25.20
2012,09,17,16,53,25.20
2012,09,17,16,54,25.20
2012,09,17,16,55,25.20
2012,09,17,16,56,25.30
2012,09,17,16,57,25.30
2012,09,17,16,58,25.30
2012,09,17,16,59,25.30
2012,09,17,17,00,25.30
2012,09,17,17,01,25.30
2012,09,17,17,02,25.30
2012,09,17,17,03,25.20
2012,09,17,17,04,25.20
2012,09,17,17,05,25.10
2012,09,17,17,06,25.10
2012,09,17,17,07,25.10
2012,09,17,17,08,25.10
2012,09,17,17,09,25.10
2012,09,17,17,10,25.10
2012,09,17,17,11,25.10
2012,09,17,17,12,25.10
2012,09,17,17,13,25.10
2012,09,17,17,14,25.20
2012,09,17,17,15,25.30
2012,09,17,17,16,25.30
2012,09,17,17,17,25.40
2012,09,17,17,18,25.40
2012,09,17,17,19,25.40
2012,09,17,17,20,25.40